This demonstration page uses our WeatherBlox Daily Observations layout. Learn more.

Left ArrowRight Arrow

34.74481, -87.66753

Hourly Observations for April 29, 2015

Temp ( °F °C ) Dew Point ( °F °C ) Humidity (%) Winds ( mph kmh ) Pressure ( in mb ) Visibility ( mi km ) Precip ( " mm )
12:53 am 00:53 Cloudy with Light Rain 54 12.2 50 10 87 87 Calm 29.89 1012 10 16 0.00 0.03
1:53 am 01:53 Cloudy with Light Rain 53 11.7 49 9.4 86 86 Calm 29.87 1011 9 14 0.02 0.51
2:53 am 02:53 Cloudy with Light Rain 53 11.7 50 10 89 89 Calm 29.86 1011 8 13 0.02 0.51
3:53 am 03:53 Cloudy with Light Rain 53 11.7 49 9.4 86 86 W 3 6 29.85 1011 7 11 0.03 0.76
4:53 am 04:53 Cloudy with Light Rain 52 11.1 47 8.3 83 83 NNW 3 6 29.84 1011 10 16 0.05 1.27
5:53 am 05:53 Cloudy 52 11.1 48 8.9 86 86 Calm 29.84 1011 10 16 0.00 0.03
6:53 am 06:53 Mostly Sunny 52 11.1 47 8.3 83 83 NNW 3 6 29.86 1011 10 16 0.00 0.00
7:53 am 07:53 Partly Cloudy 54 12.2 47 8.3 77 77 N 5 7 29.86 1011 10 16 0.00 0.00
8:53 am 08:53 Sunny 58 14.4 48 8.9 70 70 VRB 6 9 29.87 1012 10 16 0.00 0.00
9:53 am 09:53 Sunny 63 17.2 48 8.9 58 58 VRB 3 6 29.86 1011 10 16 0.00 0.00
10:53 am 10:53 Sunny 66 18.9 47 8.3 50 50 VRB 3 6 29.86 1011 10 16 0.00 0.00
11:53 am 11:53 Sunny 67 19.4 43 6.1 42 42 undefined N/A 29.84 1011 10 16 0.00 0.00
12:53 pm 12:53 Sunny 69 20.6 45 7.2 42 42 NNW 9 15 29.83 1010 10 16 0.00 0.00
2:53 pm 14:53 Sunny 72 22.2 45 7.2 38 38 Calm 29.79 1009 10 16 0.00 0.00
3:53 pm 15:53 Mostly Sunny 71 21.7 44 6.7 38 38 NNW 7 11 29.78 1008 10 16 0.00 0.00
4:53 pm 16:53 Mostly Cloudy 71 21.7 42 5.6 35 35 NNW 8 13 29.78 1008 10 16 0.00 0.00
5:53 pm 17:53 Cloudy 71 21.7 44 6.7 38 38 NW 7 11 29.78 1009 10 16 0.00 0.00
6:53 pm 18:53 Mostly Cloudy 68 20 43 6.1 40 40 NW 8 13 29.79 1009 10 16 0.00 0.00
7:53 pm 19:53 Mostly Cloudy 66 18.9 42 5.6 42 42 NW 7 11 29.82 1010 10 16 0.00 0.00
8:53 pm 20:53 Cloudy 63 17.2 44 6.7 50 50 NNW 8 13 29.83 1010 10 16 0.00 0.00
9:53 pm 21:53 Cloudy 63 17.2 44 6.7 50 50 NNW 5 7 29.84 1011 10 16 0.00 0.00
10:53 pm 22:53 Mostly Clear 59 15 45 7.2 60 60 NW 3 6 29.85 1011 10 16 0.00 0.00
11:53 pm 23:53 Clear 56 13.3 45 7.2 67 67 Calm 29.85 1011 10 16 0.00 0.00

Powered by AerisWeather